Showing default

CHINASAT 2C, 41021

Orbit data source: Space-Track

CHINASAT 2C, 41021 is a payload satellite owned by PLA GAD (CN) in GEO that was launched on Tue, 03 Nov 2015 UTC via a CHANG ZHENG 3B launch vehicle from the Xichang Space Center, China (XSC). Payload-class satellites include a variety of spacecraft equipped with specific instruments for various scientific and technological missions. These include communications satellites like Starlink; space stations such as the ISS; scientific satellites like the Hubble; Earth observation satellites from companies like Planet Labs, Umbra, and HawkEye 360; GPS; miniature CubeSats for education and research; and military/defense satellites.

Not visible in the next 10 days
Identifier
41021, 2015-063A
Orbit
GEO
Country
Flag of CNCN / PRC
Related business
Manufacturer
CAST?
Mission
Operational Defense Communications
Bus & Motor
DFH-4?, DFH-4 LAE
Mass
~5,000 kg wet, ~2,500 kg dry
Launch date (UTC)
2015-11-03 (11 years ago)
Launch vehicle
CHANG ZHENG 3B
Launch site
Xichang Space Center, China (XSC)
Object type
Payload
Rocket body
Debris
Shape & HBR
Box + 2 Pan, 15.0 m
Radar Cross Section
34.063 m², Large (>1 m²)

Expand to show TLE details & history
Last TLE update: 21 hours ago

TLE from 21 hours ago
0 CHINASAT 2C
1 41021U 15063A   26172.55317016 -.00000324  00000-0  00000+0 0  9998
2 41021   0.2863  89.5482 0007780  98.5522  24.2173  1.00268996 39022
Epoch: 2026-06-21T13:16Z
TLE epoch observation values (Epoch: 2026-06-21T13:16:33.901Z)
Latitude
0.22959°
Longitude
103.47248°
Altitude
35,757.025 km
Speed
3.077 km/s
True Right ascension
14h 09m 27s
True Declination
0° 13' 46"
Sunlit
Object was in daylight at epoch
Visualization orbit readout
Latitude
Unknown
Longitude
Unknown
Altitude
Unknown
Speed
Unknown
Apparent Right ascension
Unknown
Apparent Declination
Unknown
Sunlit
N/A
Visualization observer readout
Local Sidereal Time
21:34:08
Azimuth
Unknown
Elevation
Unknown
Doppler factor
Unknown
Orbital elements
Apogee altitude
35,821.253 km
Perigee altitude
35,755.642 km
Semi-major axis
42,166.584 km
Eccentricity
0.00078
Inclination
0.2863°
RAAN
89.5482°
Arg. of periapsis
98.5522°
True anomaly
24.2539°
Mean anomaly
24.2173°
Eccentric anomaly
24.2356°
Mean motion
0.25066 °/min
Orbital period
1,436.19 mins
BSTAR
0
Loading maneuver chart data...
Computing Atmospheric mass density...
Loading historical data...
Loading historical data...
Loading historical data...
Loading historical data...
Loading historical data...
Loading historical data...
Loading historical data...
Other satellites on launch #63 in the year 2015 (2015-11-03 UTC)

Documentation

Showing up to 5 results
|